Wind_Speed
28 27 26 25 23 22 21 21 20 19 18 17 17 17 16 15 15 15 14 14 13 13 13 13 13 13 13 14 14 14 15 14 15 15 15 15 15 16 16 16 16 16 15
31 29 28 27 26 24 23 22 22 21 19 18 17 18 18 17 16 16 16 15 15 14 14 14 14 15 15 15 15 15 15 15 15 15 15 16 17 17 17 17 17 16 16
33 32 30 29 28 26 25 24 24 23 22 20 19 19 18 18 18 17 17 17 16 15 15 15 16 16 15 15 15 15 16 16 16 17 17 17 18 18 18 18 17 16 16
35 34 32 31 30 28 27 26 25 24 23 22 21 20 20 19 19 19 19 18 18 17 16 17 16 16 16 16 16 16 16 16 17 17 17 18 18 18 18 18 17 17 17
37 35 34 33 31 30 29 27 26 25 24 24 23 22 22 21 21 21 20 19 18 18 17 17 17 17 17 17 17 17 17 17 18 18 18 19 19 19 18 18 18 17 17
39 38 36 35 33 32 31 29 28 26 25 25 24 23 23 22 21 21 20 21 20 20 19 19 19 18 18 18 18 18 18 19 19 19 19 19 20 19 18 18 18 18 17
42 40 38 37 35 34 33 32 30 28 26 26 26 25 24 24 23 22 21 21 21 21 21 20 19 19 19 19 19 19 20 20 20 20 20 20 20 19 19 19 19 18 18
44 42 41 39 37 36 36 34 33 31 29 28 27 27 26 25 25 24 23 22 22 22 22 22 21 21 21 21 20 20 21 21 21 21 20 20 20 20 20 20 20 20 20
44 44 43 41 40 39 38 37 35 34 32 30 29 29 28 27 26 25 25 24 24 23 23 23 23 23 22 22 22 22 22 22 22 22 21 21 21 21 21 21 21 21 21
45 44 44 43 42 41 39 39 38 37 35 33 32 31 30 29 28 27 26 25 25 25 25 25 24 24 24 24 24 24 24 24 23 23 23 22 22 22 22 22 22 22 23
46 45 45 44 43 42 41 40 39 38 37 36 34 33 32 31 30 29 28 27 26 26 26 26 26 26 25 25 26 26 25 25 24 24 24 24 23 23 23 23 23 23 23
47 47 45 45 45 43 42 42 40 39 38 38 37 35 34 33 32 31 30 29 28 28 28 28 28 28 28 27 27 27 27 27 26 25 25 25 25 24 24 24 24 25 25
49 47 46 46 46 45 44 43 42 41 41 40 39 38 36 35 34 33 32 31 30 30 30 29 29 30 29 29 29 29 28 28 28 28 27 27 26 26 26 27 27 26 26
50 49 48 47 46 46 46 45 43 42 42 41 40 39 38 37 36 36 35 34 33 32 32 31 31 31 31 30 30 30 30 30 30 29 29 29 29 28 28 28 28 28 28
50 50 50 50 48 47 46 46 45 44 43 41 41 40 40 39 38 37 36 36 35 35 34 34 33 33 33 32 31 31 31 31 31 31 31 31 31 30 30 30 30 30 31
51 51 51 52 50 49 47 47 46 45 45 43 42 41 40 40 39 38 38 37 37 37 36 35 35 34 33 33 33 33 32 32 31 31 32 32 32 32 32 32 32 32 32
53 52 51 51 51 51 49 48 48 47 46 45 44 42 41 40 40 39 39 39 38 38 37 37 36 36 35 35 35 35 34 33 33 33 33 34 34 34 34 34 34 34 34
55 54 53 53 52 52 51 50 49 48 47 45 45 45 43 42 41 41 40 40 40 39 39 38 38 37 37 37 37 37 37 36 36 36 36 36 36 36 36 36 36 36 36
55 55 55 55 55 54 53 51 50 49 48 47 47 46 46 45 44 42 42 41 41 41 40 39 39 39 39 38 38 38 38 38 39 39 38 38 38 38 38 38 38 39 39
55 56 56 56 54 54 54 52 51 50 49 48 48 48 48 47 46 44 43 43 43 42 41 40 40 40 40 40 40 40 40 40 40 40 40 40 41 40 40 40 40 41 41
55 55 55 56 55 54 54 54 53 52 51 50 50 49 48 48 48 47 46 45 45 44 42 42 41 41 41 41 41 41 41 41 41 41 41 42 42 42 42 42 42 43 44
55 55 54 54 54 54 54 54 54 54 53 52 51 50 50 50 50 48 47 46 45 44 44 43 43 42 42 43 42 42 42 42 42 43 43 43 44 45 45 45 45 45 45
55 55 55 54 54 54 54 54 53 54 54 53 52 52 52 52 51 50 48 47 47 46 46 45 45 45 45 45 45 45 45 45 45 44 45 45 45 46 46 47 47 47 47
56 56 55 55 54 54 54 54 54 54 55 54 53 53 53 52 52 51 50 49 49 48 47 47 47 47 48 48 47 47 48 48 48 47 47 47 47 47 48 48 49 49 49
56 56 56 55 54 55 55 56 56 55 55 55 54 54 53 53 52 52 52 51 51 50 50 50 50 50 50 49 50 50 49 49 49 49 49 49 49 49 50 51 51 51 51
54 54 54 54 54 53 53 54 55 55 56 55 55 54 54 54 53 53 52 52 52 52 52 51 51 51 50 50 50 51 51 50 50 50 51 51 51 51 51 52 52 52 52
Wind_Direction
231 231 232 232 233 235 236 239 240 241 241 243 245 245 245 250 254 257 259 262 266 269 272 277 281 284 286 288 291 293 296 298 301 303 305 307 309 311 313 313 313 312 311
231 232 233 234 234 235 237 239 240 240 242 243 245 246 248 250 253 257 261 263 265 268 272 277 280 282 283 286 289 291 293 295 299 301 302 304 306 308 309 310 310 309 308
231 232 233 234 235 236 237 239 239 239 241 243 244 246 249 251 253 257 260 263 264 266 271 275 278 281 281 283 286 289 290 293 296 298 300 302 304 305 306 308 308 307 306
232 232 232 233 234 235 236 237 238 240 241 243 244 246 250 252 255 258 260 261 263 266 269 273 276 278 279 281 283 287 290 292 294 297 299 300 302 305 306 306 306 306 305
232 233 233 232 233 234 235 236 238 240 242 243 245 247 250 253 256 258 260 260 262 265 268 271 274 274 276 279 282 286 289 290 293 296 298 299 301 302 304 305 304 304 305
231 232 232 232 232 232 234 236 238 240 242 244 246 249 250 252 256 258 259 260 260 262 266 269 271 273 275 278 280 284 287 288 290 293 295 296 298 299 300 303 303 302 304
231 232 232 232 232 232 234 236 238 239 241 244 246 249 251 253 255 258 259 261 261 262 264 266 268 271 274 277 280 281 284 288 290 291 292 294 296 296 297 299 301 302 304
232 233 233 233 233 233 234 236 238 240 242 245 247 249 252 254 255 258 258 260 262 263 264 265 267 270 272 275 278 280 284 287 287 289 292 293 294 294 296 297 298 299 301
232 234 234 233 234 235 236 236 238 240 242 244 246 248 251 254 257 258 258 259 261 263 264 265 266 268 271 274 276 279 283 285 284 285 287 290 292 294 293 294 296 297 298
232 233 233 234 234 236 237 238 239 241 242 244 246 248 251 254 257 259 259 260 261 262 264 266 266 268 271 273 275 278 281 283 283 283 284 286 288 289 291 293 295 296 297
232 233 234 234 234 235 236 238 239 241 243 244 246 248 250 253 255 258 259 260 262 263 264 267 268 269 270 272 275 276 278 280 280 281 282 284 285 287 290 292 294 295 297
232 233 234 235 235 236 237 238 239 241 243 245 246 248 250 252 254 256 258 260 261 263 265 267 269 270 270 272 274 275 277 277 277 278 281 282 283 285 288 290 292 294 295
232 233 234 235 236 237 238 240 241 242 244 245 246 248 250 251 253 254 257 258 260 262 264 267 269 270 270 271 273 275 276 276 276 276 278 280 282 283 285 287 289 290 292
233 233 234 235 236 237 238 239 241 242 243 245 246 247 249 251 252 254 257 258 258 261 264 265 267 269 270 271 273 274 275 277 276 275 276 278 281 282 283 285 287 288 289
233 234 235 235 236 237 238 239 240 241 243 245 246 247 249 250 252 255 257 258 259 261 263 265 266 267 268 270 272 274 275 276 275 275 275 277 279 281 282 284 285 287 288
233 234 235 236 236 237 238 239 240 242 243 245 246 247 248 250 252 254 256 258 260 262 263 265 266 267 268 269 270 272 274 275 275 275 275 276 278 279 281 283 285 286 287
233 234 235 235 236 238 239 240 241 242 243 245 246 247 248 250 252 254 256 258 260 262 264 266 266 267 267 267 268 270 272 273 274 275 275 276 278 279 280 282 284 286 287
234 235 235 236 236 238 239 240 242 242 243 244 246 247 247 249 251 253 256 258 260 262 264 265 266 266 267 268 268 269 270 271 272 274 275 277 277 278 279 281 283 285 286
233 234 234 235 237 239 239 240 241 242 243 245 246 247 248 249 251 254 256 258 260 262 263 263 264 265 267 268 268 268 270 271 272 274 275 276 277 278 279 280 282 284 285
234 234 234 235 236 238 238 240 241 242 243 244 246 248 249 250 251 253 256 258 259 260 261 262 263 264 266 267 267 269 270 272 273 273 274 275 276 277 278 280 281 283 284
233 235 235 235 235 237 239 240 241 242 243 243 245 247 248 250 252 254 255 256 258 259 261 262 263 263 265 265 266 268 270 271 272 272 273 274 275 276 277 279 280 282 283
234 234 235 236 236 237 238 239 241 242 242 243 244 246 248 250 252 253 254 255 257 259 261 262 262 263 264 265 267 268 270 271 272 272 273 274 275 276 277 278 280 281 282
234 234 235 236 237 238 239 240 241 242 242 243 244 245 247 249 251 252 254 255 257 259 261 262 263 265 266 266 268 268 269 271 272 273 273 274 275 276 277 277 278 280 281
235 234 236 237 238 239 240 242 242 243 243 244 245 246 248 250 251 253 254 255 257 258 260 261 263 264 266 268 269 270 271 272 272 273 274 275 275 276 277 278 279 281 282
236 236 237 239 240 240 241 243 244 245 245 246 248 249 251 252 253 254 254 256 257 257 258 261 262 264 266 267 269 269 271 272 273 274 275 275 276 276 277 278 279 281 283
237 237 238 240 241 241 243 244 245 246 246 246 248 249 251 252 253 253 254 255 256 257 258 260 262 263 264 266 268 269 271 272 273 273 274 275 275 276 277 278 279 281 282
Height
5838 5841 5843 5846 5848 5849 5851 5853 5854 5856 5857 5858 5859 5860 5861 5862 5863 5863 5864 5864 5864 5864 5864 5864 5863 5863 5862 5862 5861 5860 5859 5858 5857 5855 5854 5852 5851 5849 5847 5845 5843 5841 5839
5832 5835 5838 5841 5843 5845 5847 5849 5850 5852 5854 5855 5856 5857 5858 5859 5860 5860 5861 5861 5861 5861 5861 5861 5861 5860 5859 5859 5858 5857 5856 5855 5854 5853 5851 5850 5848 5846 5844 5842 5840 5838 5837
5826 5829 5832 5835 5838 5840 5842 5844 5846 5848 5849 5851 5852 5853 5854 5855 5856 5857 5857 5858 5858 5858 5858 5858 5857 5857 5856 5856 5855 5854 5853 5852 5851 5850 5848 5847 5845 5843 5841 5839 5837 5836 5834
5819 5823 5826 5829 5832 5834 5837 5839 5841 5843 5845 5847 5848 5849 5850 5851 5852 5853 5853 5854 5854 5854 5854 5854 5854 5853 5853 5852 5852 5851 5850 5849 5848 5847 5845 5844 5842 5840 5838 5836 5834 5833 5831
5812 5815 5819 5822 5825 5828 5831 5833 5836 5838 5840 5842 5843 5845 5846 5847 5848 5848 5849 5850 5850 5850 5850 5850 5850 5850 5849 5849 5848 5847 5847 5846 5844 5843 5842 5840 5838 5837 5835 5833 5831 5830 5828
5804 5808 5811 5815 5819 5822 5825 5828 5830 5832 5834 5836 5838 5840 5841 5842 5843 5844 5844 5845 5846 5846 5846 5846 5846 5846 5845 5845 5844 5844 5843 5842 5841 5839 5838 5836 5835 5833 5832 5830 5828 5826 5825
5795 5799 5803 5807 5811 5815 5818 5821 5824 5826 5829 5831 5833 5834 5836 5837 5838 5839 5840 5840 5841 5841 5841 5842 5842 5842 5841 5841 5840 5840 5839 5838 5836 5835 5834 5832 5831 5829 5828 5826 5825 5823 5821
5786 5791 5795 5799 5803 5807 5811 5814 5817 5820 5822 5825 5827 5828 5830 5832 5833 5834 5835 5835 5836 5836 5837 5837 5837 5837 5837 5836 5836 5835 5834 5833 5832 5831 5830 5828 5827 5826 5824 5823 5821 5819 5818
5777 5782 5787 5791 5795 5799 5803 5807 5810 5813 5815 5818 5820 5823 5824 5826 5827 5828 5829 5830 5831 5831 5831 5832 5832 5832 5832 5831 5831 5830 5829 5828 5827 5826 5825 5824 5822 5821 5820 5818 5817 5815 5814
5768 5773 5778 5782 5786 5791 5795 5798 5802 5805 5808 5811 5813 5816 5818 5820 5821 5822 5824 5824 5825 5825 5826 5826 5826 5826 5826 5826 5826 5825 5824 5823 5822 5821 5820 5819 5818 5817 5815 5814 5812 5811 5809
5758 5763 5768 5773 5777 5782 5786 5790 5793 5797 5800 5803 5806 5808 5810 5812 5814 5816 5817 5818 5819 5819 5820 5820 5820 5820 5820 5820 5820 5819 5819 5818 5817 5816 5815 5814 5813 5811 5810 5809 5807 5806 5804
5748 5753 5758 5763 5768 5773 5777 5781 5784 5788 5791 5795 5798 5800 5803 5805 5807 5809 5810 5811 5812 5813 5813 5813 5814 5814 5814 5814 5814 5813 5813 5812 5811 5810 5809 5808 5807 5806 5805 5803 5802 5800 5799
5737 5743 5748 5753 5758 5763 5767 5772 5775 5779 5782 5786 5789 5792 5794 5797 5799 5801 5802 5803 5805 5805 5806 5806 5807 5807 5807 5807 5807 5806 5806 5805 5805 5804 5803 5802 5801 5800 5799 5798 5796 5795 5793
5727 5732 5738 5743 5748 5753 5757 5762 5766 5770 5773 5777 5780 5783 5785 5788 5790 5792 5794 5796 5797 5798 5799 5799 5799 5799 5799 5799 5799 5799 5799 5798 5797 5797 5796 5796 5795 5794 5792 5791 5789 5788 5786
5716 5722 5727 5733 5738 5743 5747 5752 5756 5760 5764 5767 5771 5774 5777 5779 5781 5783 5785 5787 5789 5790 5791 5791 5792 5792 5792 5792 5792 5791 5791 5791 5790 5789 5789 5788 5787 5786 5785 5784 5782 5781 5779
5705 5711 5716 5722 5727 5732 5736 5741 5746 5750 5754 5758 5761 5765 5767 5770 5772 5774 5776 5778 5780 5781 5782 5783 5783 5783 5783 5784 5784 5784 5783 5783 5782 5781 5781 5780 5779 5778 5777 5776 5774 5773 5771
5693 5700 5705 5710 5716 5721 5726 5730 5735 5740 5744 5748 5752 5755 5758 5761 5763 5765 5767 5769 5770 5771 5773 5774 5774 5774 5775 5775 5775 5775 5775 5774 5774 5773 5772 5772 5771 5770 5768 5767 5766 5764 5763
5682 5688 5693 5699 5704 5709 5714 5719 5724 5729 5733 5737 5741 5745 5748 5751 5754 5756 5758 5759 5760 5762 5763 5764 5764 5765 5765 5766 5766 5766 5766 5765 5765 5764 5763 5762 5761 5761 5759 5758 5757 5755 5754
5670 5675 5681 5687 5693 5698 5703 5708 5713 5718 5722 5726 5730 5734 5737 5740 5743 5746 5748 5749 5751 5752 5753 5754 5755 5756 5756 5756 5756 5756 5756 5756 5755 5754 5754 5753 5752 5751 5750 5748 5747 5746 5744
5657 5663 5669 5675 5680 5686 5691 5697 5702 5706 5711 5715 5719 5723 5726 5729 5732 5735 5737 5739 5740 5741 5743 5744 5745 5745 5746 5746 5746 5746 5746 5745 5745 5744 5743 5742 5741 5740 5739 5738 5737 5736 5734
5645 5651 5656 5662 5668 5674 5679 5684 5690 5694 5699 5704 5708 5711 5715 5718 5721 5723 5726 5728 5729 5731 5732 5733 5734 5735 5735 5735 5736 5735 5735 5735 5734 5733 5733 5732 5731 5730 5729 5728 5726 5724 5723
5633 5639 5644 5650 5656 5661 5667 5672 5677 5682 5687 5691 5695 5699 5703 5706 5709 5711 5714 5716 5718 5720 5721 5722 5723 5724 5724 5724 5724 5724 5724 5724 5724 5723 5722 5721 5720 5719 5717 5716 5715 5713 5711
5620 5627 5632 5638 5643 5649 5654 5659 5664 5669 5674 5678 5682 5686 5690 5694 5696 5699 5701 5704 5706 5708 5709 5711 5712 5712 5713 5713 5713 5713 5712 5712 5712 5711 5710 5710 5708 5707 5706 5704 5702 5701 5699
5608 5614 5620 5626 5631 5637 5642 5646 5651 5655 5660 5665 5669 5673 5677 5680 5683 5686 5689 5691 5693 5695 5697 5698 5700 5700 5700 5700 5700 5700 5700 5700 5699 5698 5697 5697 5696 5695 5693 5691 5690 5688 5686
5595 5601 5608 5613 5619 5624 5629 5633 5638 5642 5647 5652 5656 5660 5663 5667 5670 5673 5675 5678 5681 5682 5683 5685 5686 5687 5687 5687 5687 5687 5687 5687 5686 5686 5684 5684 5683 5681 5680 5678 5676 5674 5672
5583 5589 5595 5601 5606 5611 5616 5620 5624 5629 5634 5639 5643 5646 5650 5653 5656 5658 5661 5664 5667 5669 5670 5671 5672 5673 5674 5674 5674 5674 5674 5673 5673 5672 5671 5670 5669 5667 5666 5665 5663 5660 5658